User: anonymous   Login
Location: Brno
(49.2000°N, 16.6330°E)
Time: 21:45:04
(UTC+02:00)
Language:

Cosmos 1459 Rocket - Orbit

View from above orbital plane
View from above orbital plane
View from above satellite
View from above satellite

Ground track
Ground track

The orbit data is extracted from the following two-line orbital elements,

1 14059U 83042B   16211.38147911  .00000014  00000-0 -19776-5 0  9992
2 14059  82.9737 301.5186 0044066  93.5627 335.8452 13.78559023671280
Epoch (UTC): 29 July 2016 09:09:19
Eccentricity: 0.0044066
inclination: 82.9737°
perigee height: 936 km
apogee height: 1001 km
right ascension of ascending node: 301.5186°
argument of perigee: 93.5627°
revolutions per day: 13.78559023
mean anomaly at epoch: 335.8452°
orbit number at epoch: 67128

The dashed part of the orbit path shows where the satellite is in the earth's shadow,  

DLR